Regional Weather Roundup
Issued by NWS Green Bay, WI

Home | Current Version | Previous Version | Graphics & Text | Print | Product List | Glossary Off
Versions: 1 2 3 4 5 6 7 8 9 10 11 12 13 14 15 16 17 18 19 20 21 22 23 24 25 26 27 28 29 30 31 32 33 34 35 36 37 38 39 40 41 42 43 44 45 46 47 48 49 50

000
ASUS43 KGRB 011010
RWRGRB

NORTH-CENTRAL AND NORTHEAST WISCONSIN REGIONAL WEATHER ROUNDUP
NATIONAL WEATHER SERVICE GREEN BAY WI
400 AM CST SUN FEB 01 2015

WIZ005-009-010>012-018-019-011100-
NORTH CENTRAL WISCONSIN

CITY           SKY/WX    TMP DP  RH WIND       PRES   REMARKS
IRONWOOD       MOCLDY     3  -2  78 E6        30.30F WCI  -8
MANITOWISH WTR CLOUDY     2  -3  77 NE6       30.25F WCI  -9
ARBOR VITAE    CLOUDY     5  -1  76 NE9       30.24F WCI  -9
EAGLE RIVER    CLOUDY     4  -3  75 NE8       30.24F WCI -10
LAND O LAKES   CLOUDY     4  -1  80 NE7       30.26S WCI  -8
RHINELANDER    CLOUDY     5  -2  72 NE9       30.22F WCI  -9
PHILLIPS       CLOUDY     5  -1  76 NE9G16    30.23F WCI  -9
ANTIGO         CLOUDY     7   1  77 NE15      30.20F WCI -10
TOMAHAWK       CLOUDY     6  -1  74 CALM      30.24F
MERRILL        CLOUDY     9   1  70 NE8       30.22F WCI  -3
$$

WIZ013-073-011100-
NORTHEAST WISCONSIN

CITY           SKY/WX    TMP DP  RH WIND       PRES   REMARKS
IRON MOUNTAIN  CLOUDY     8   1  73 N6        30.27F WCI  -2
MARINETTE      CLOUDY    10   3  72 NE10      30.29S WCI  -3
OCONTO         CLOUDY    12   5  73 MISG      30.27F
$$

WIZ017-030-035>037-045-011100-
CENTRAL WISCONSIN

CITY           SKY/WX    TMP DP  RH WIND       PRES   REMARKS
MEDFORD        CLOUDY    10   2  71 E14G21    30.19S WCI  -7
WAUSAU         CLOUDY    10   2  69 NE10      30.21F WCI  -4
MOSINEE        LGT SNOW  12   5  73 NE21      30.21F WCI  -6
MARSHFIELD     LGT SNOW  13   7  77 E16       30.18S WCI  -3
WISC RAPIDS    LGT SNOW  12   6  77 E12       30.21S WCI  -2
STEVENS POINT  LGT SNOW  10   5  81 NE14      30.21F WCI  -7
WAUPACA        LGT SNOW  15   8  76 NE10      30.23F WCI   2
SHAWANO        CLOUDY    14   5  68 NE13      30.26S WCI   0
CLINTONVILLE   LGT SNOW  12   5  73 NE12G20   30.25S WCI  -2
$$

WIZ038-039-048-051-011100-
FOX VALLEY

CITY           SKY/WX    TMP DP  RH WIND       PRES   REMARKS
NWS GREEN BAY  LGT SNOW  14   7  73 NE21G30   30.24F WCI  -4
APPLETON       LGT SNOW  14   9  79 N16       30.20F WCI  -2
OSHKOSH        LGT SNOW  14  10  84 NE21G28   30.18F VSB 1   WCI  -4
FOND DU LAC    LGT SNOW  15  10  80 NE20      30.18F WCI  -2
$$

WIZ022-050-052-011100-
EAST CENTRAL WISCONSIN

CITY           SKY/WX    TMP DP  RH WIND       PRES   REMARKS
STURGEON BAY   CLOUDY    12   7  79 N12       30.27F WCI  -2
MANITOWOC      LGT SNOW  16  13  88 N10       30.21F FOG     WCI   4
SHEBOYGAN      LGT SNOW  17  13  84 N14G23    30.17F FOG     WCI   3
$$

LMZ563-521-522-541>543-011100-
LAKESHORE

STATION/POSITION TIME  TEMP    WIND        PRES    VSBY  WAVE
                       AIR SEA DIR/SP/G                  HT/PER
                 (UTC) (F)     (DEG/KT/KT) (MB)    (MI)  (FT/S)
SHEBOYGAN LKSHOR 1000   23      50/ 28/ 30 1022.6F
KEWAUNEE LKSHORE 1000   15      10/ 13/ 16 1022.9F
NORTHPORT PIER   1000   14     360/ 16/ 21 1026.1S
SISTER BAY LKSHO 1000   13      20/ 13/ 18   N/A
CHAMBERS ISLAND  1000   14      10/ 17/ 20 1026.1F
MENOMINEE LKSHOR 1000   12      10/ 13     1026.3F
$$


USA.gov is the U.S. government's official web portal to all federal, state and local government web resources and services.